Wetbulb
63.54 65.66 65.29 65.61 67.04 67.68 67.65 68.49 69.46 69.61 68.90 69.72 71.11 71.73 71.27 71.12 70.34 70.49 69.68 68.10 67.96 67.52 70.94 72.72 73.08 73.98 74.61 73.85 73.70 72.94 72.54 71.81 71.96
63.05 65.42 65.80 66.18 67.06 67.97 68.04 68.52 69.09 69.60 69.33 69.25 71.20 71.31 71.67 71.43 71.72 70.83 70.22 68.98 68.23 68.88 69.74 72.82 73.09 73.79 74.43 74.23 73.90 73.00 73.29 72.05 72.11
63.66 65.69 66.34 66.92 66.98 67.79 68.40 68.86 69.54 70.13 70.17 69.58 70.04 71.66 71.66 71.01 70.74 72.15 72.87 70.20 68.61 70.35 70.25 70.92 72.42 73.01 73.58 74.43 74.15 73.43 72.49 72.80 73.06
64.53 65.67 66.46 67.14 67.23 68.11 68.34 68.98 69.51 69.93 70.25 69.96 70.01 70.90 71.98 71.98 71.47 70.75 71.55 72.29 70.18 69.86 69.62 70.97 71.15 72.88 73.29 73.14 74.28 73.58 72.60 72.12 73.45
65.70 66.48 67.09 67.75 67.68 67.56 67.92 68.00 68.67 69.34 70.19 70.42 70.69 71.28 71.40 71.88 72.26 72.23 70.82 70.68 72.74 71.40 69.84 69.79 71.15 74.10 73.42 73.29 73.68 74.51 73.82 72.48 73.14
64.04 66.23 67.15 67.54 67.62 66.99 67.45 67.71 68.07 68.87 69.92 70.77 71.37 71.63 71.62 71.65 72.51 73.16 72.94 71.73 71.44 72.64 71.75 70.75 70.84 73.55 74.46 73.89 73.83 73.57 74.52 74.15 73.38
61.52 65.57 66.59 67.26 67.14 66.99 67.27 67.59 67.72 68.27 69.19 70.96 71.63 72.08 72.22 71.84 72.08 73.43 74.38 73.93 72.71 71.66 72.74 72.03 71.33 71.89 73.96 74.80 74.41 74.31 73.87 73.84 74.10
59.52 64.27 66.15 66.98 67.09 66.85 67.13 67.35 67.54 67.98 69.00 70.06 71.53 71.87 72.08 72.27 73.00 72.89 73.77 74.66 74.28 73.46 72.02 72.61 72.83 72.35 72.61 74.33 74.75 74.89 74.03 73.82 73.39
58.79 64.09 66.15 67.08 67.46 67.26 67.12 67.23 67.39 67.75 68.59 69.43 71.09 71.37 71.72 72.40 72.78 73.88 73.45 73.88 74.48 74.76 73.66 72.76 72.90 72.68 73.05 73.51 74.62 70.16 68.77 72.91 73.81
57.60 59.72 63.51 67.00 67.72 67.66 67.68 67.89 68.14 67.61 68.48 69.37 70.42 71.01 71.51 72.28 73.02 73.29 74.13 74.45 74.43 74.41 74.48 73.86 72.91 73.51 73.22 72.84 74.60 67.26 66.84 68.70 73.87
61.05 61.71 62.23 62.27 62.26 63.31 67.98 68.90 68.74 68.79 68.91 69.07 69.13 69.56 71.83 72.57 73.14 73.49 74.09 74.33 74.21 74.48 74.82 74.60 74.26 73.13 73.78 74.43 74.07 66.33 64.91 66.87 73.23
63.16 64.25 64.50 63.18 62.99 63.20 65.00 65.92 67.76 68.91 68.59 69.05 69.31 69.26 69.67 71.94 73.43 73.69 74.05 74.13 74.48 74.83 74.87 74.82 75.05 75.25 74.61 73.75 74.26 65.00 63.45 64.97 72.37
61.26 62.65 64.84 67.01 68.44 69.34 66.26 64.51 66.51 69.03 69.54 69.57 69.15 69.81 70.54 71.40 72.42 73.73 73.92 74.40 74.45 75.35 75.36 75.12 75.53 75.11 75.58 72.25 75.05 65.67 62.10 64.85 73.96
60.44 60.97 62.03 65.61 68.28 69.40 69.58 67.55 64.17 64.53 68.37 69.42 70.38 70.93 71.44 72.02 72.48 72.67 74.11 74.60 74.86 74.69 75.08 75.02 74.76 74.92 75.27 75.36 74.28 74.36 60.67 60.33 74.33
54.36 57.08 60.72 60.94 63.17 67.18 68.60 69.83 70.22 66.95 65.88 67.44 69.01 72.23 71.89 72.71 72.79 73.58 74.17 74.10 74.38 74.81 74.70 74.51 74.51 74.33 74.71 75.49 75.63 65.92 60.88 59.04 61.50
52.51 53.72 60.29 60.62 58.31 60.42 65.82 68.01 70.61 71.39 73.19 67.10 68.42 70.52 71.13 71.86 72.71 73.83 74.33 73.99 73.67 74.11 74.55 74.50 74.48 74.45 74.30 74.68 75.70 75.88 60.70 57.80 58.46
51.59 52.29 54.66 60.28 60.22 60.00 62.54 66.34 69.06 71.70 73.74 72.63 69.85 68.91 70.10 71.58 71.51 71.81 71.66 74.90 74.82 74.60 74.53 74.53 74.41 74.49 74.39 74.88 75.07 75.30 74.02 67.45 63.39
50.57 51.04 51.89 56.54 59.32 59.17 59.64 65.09 67.12 70.08 72.94 73.49 72.85 70.94 69.52 71.17 72.09 70.54 71.77 68.29 67.16 73.56 74.16 71.47 74.91 75.00 75.18 74.60 74.26 73.60 69.39 69.46 69.74
50.19 51.18 51.46 52.30 59.02 59.19 60.54 63.88 66.38 68.06 71.79 71.65 71.02 71.12 71.83 70.86 71.96 71.52 69.19 62.95 58.09 47.77 46.81 46.29 47.10 51.99 66.20 69.01 56.29 54.89 53.63 50.73 53.26
51.06 50.42 51.46 51.30 56.16 60.31 61.50 62.79 63.95 65.65 68.85 69.79 68.96 68.69 70.22 71.74 69.26 72.58 67.81 65.39 64.76 62.72 55.24 46.36 43.64 43.46 50.54 53.99 54.15 46.19 45.83 45.83 46.37
MSLP
999.77 1000.87 1001.80 1002.30 1002.89 1003.73 1004.80 1005.85 1006.88 1007.87 1008.84 1009.62 1010.43 1011.02 1011.70 1012.41 1013.10 1013.67 1014.13 1014.58 1014.99 1015.26 1015.56 1015.66 1015.72 1015.94 1016.05 1016.35 1016.72 1017.13 1017.56 1018.06 1018.25
998.87 999.31 1000.33 1000.87 1001.88 1002.87 1003.87 1004.87 1005.70 1006.65 1007.76 1008.63 1009.48 1010.15 1010.88 1011.61 1012.31 1012.83 1013.32 1013.89 1014.37 1014.73 1014.93 1015.16 1015.24 1015.37 1015.72 1015.91 1016.29 1016.71 1017.39 1017.89 1018.01
997.17 998.09 998.96 1000.18 1000.90 1001.83 1002.72 1003.64 1004.52 1005.75 1006.79 1007.60 1008.45 1009.29 1010.05 1010.75 1011.37 1012.10 1012.67 1013.27 1013.77 1014.10 1014.36 1014.71 1014.81 1014.95 1015.26 1015.64 1016.01 1016.49 1016.99 1017.39 1017.57
996.31 996.69 997.64 998.85 999.65 1000.55 1001.58 1002.72 1004.05 1004.95 1006.07 1007.05 1007.95 1008.70 1009.39 1010.13 1010.75 1011.30 1011.98 1012.54 1012.96 1013.38 1013.81 1014.04 1014.22 1014.35 1014.83 1015.23 1015.71 1016.07 1016.52 1016.85 1017.14
994.21 995.17 995.93 997.25 998.44 999.57 1000.94 1002.09 1003.10 1004.16 1005.15 1006.25 1006.95 1007.61 1008.54 1009.30 1009.97 1010.68 1011.29 1011.71 1012.22 1012.67 1013.06 1013.34 1013.59 1013.92 1014.36 1014.75 1015.13 1015.41 1015.82 1016.13 1016.46
992.81 994.14 994.99 996.11 997.65 998.97 999.94 1001.02 1002.06 1003.09 1004.12 1005.07 1006.03 1007.04 1007.85 1008.56 1009.23 1009.83 1010.33 1010.83 1011.34 1011.86 1012.21 1012.53 1012.92 1013.39 1013.73 1014.15 1014.54 1014.75 1014.89 1015.27 1015.63
991.79 992.86 993.81 995.15 996.76 997.88 998.96 999.97 1000.95 1002.04 1003.00 1004.02 1005.17 1006.19 1006.96 1007.56 1008.01 1008.62 1009.27 1009.79 1010.30 1010.79 1011.26 1011.84 1012.23 1012.53 1012.90 1013.31 1013.67 1013.95 1014.18 1014.50 1014.81
991.95 992.59 993.50 994.71 995.77 996.95 998.01 999.15 1000.14 1001.07 1002.01 1002.99 1004.01 1005.07 1005.79 1006.21 1006.99 1007.59 1008.19 1008.77 1009.33 1009.79 1010.29 1010.72 1011.15 1011.75 1012.17 1012.39 1012.69 1012.98 1013.37 1013.67 1013.86
992.25 992.33 992.98 993.92 994.91 995.85 996.95 997.93 998.91 999.94 1000.91 1001.77 1002.89 1003.74 1004.33 1005.20 1006.06 1006.67 1007.22 1007.78 1008.31 1008.87 1009.36 1009.79 1010.30 1010.73 1011.05 1011.40 1011.52 1011.76 1012.15 1012.56 1012.87
993.22 993.40 993.64 993.86 994.31 995.12 995.99 996.96 997.79 998.97 999.78 1001.08 1002.09 1002.79 1003.47 1004.38 1005.08 1005.77 1006.31 1006.80 1007.39 1007.84 1008.30 1008.76 1009.26 1009.69 1009.99 1010.23 1010.46 1010.73 1011.20 1011.64 1011.97
994.87 994.96 995.14 995.46 995.63 996.11 996.26 996.93 997.71 998.20 999.58 1000.22 1001.03 1001.88 1002.74 1003.40 1004.12 1004.79 1005.33 1006.01 1006.43 1006.87 1007.30 1007.76 1008.21 1008.60 1008.84 1009.19 1009.37 1009.81 1010.39 1010.89 1011.30
997.38 996.99 996.83 996.60 996.68 996.68 996.77 997.23 997.50 998.38 999.37 1000.01 1000.51 1001.10 1001.65 1002.16 1002.95 1003.65 1004.35 1004.94 1005.39 1005.66 1006.27 1006.78 1007.11 1007.45 1007.90 1008.17 1008.46 1008.89 1009.51 1010.38 1010.66
999.15 998.65 998.17 997.98 997.71 997.77 997.91 998.15 997.64 998.27 998.91 999.55 999.84 1000.01 1000.42 1001.17 1001.92 1002.57 1003.17 1003.66 1004.16 1004.45 1005.07 1005.55 1006.13 1006.41 1006.62 1006.95 1007.38 1007.82 1008.41 1009.23 1009.54
1000.47 1000.11 999.55 999.07 998.53 998.55 998.73 998.47 998.49 998.98 999.31 999.55 999.75 1000.08 1000.45 1000.96 1001.31 1001.70 1002.19 1002.78 1003.44 1003.94 1004.39 1004.91 1005.24 1005.45 1005.61 1005.88 1006.36 1006.82 1007.40 1008.11 1008.41
1001.15 1000.95 1000.61 1000.31 999.80 999.52 999.35 999.11 998.95 999.44 999.73 999.69 999.59 999.65 999.96 1000.52 1001.01 1001.42 1001.93 1002.33 1002.84 1003.29 1003.81 1004.21 1004.46 1004.72 1004.80 1004.89 1005.33 1005.81 1006.34 1006.91 1007.21
1002.29 1001.80 1001.36 1001.15 1000.99 1000.68 1000.25 999.91 999.63 999.83 1000.01 999.70 999.57 999.75 999.93 1000.09 1000.30 1000.63 1001.05 1001.70 1002.31 1002.89 1003.24 1003.47 1003.77 1004.00 1004.05 1004.13 1004.47 1004.81 1005.35 1005.96 1006.40
1002.90 1002.49 1002.07 1001.83 1001.41 1001.28 1001.27 1000.85 1000.36 1000.15 1000.09 999.96 999.87 999.83 999.88 1000.04 1000.21 1000.51 1000.82 1001.31 1001.85 1002.26 1002.63 1002.93 1003.15 1003.25 1003.29 1003.56 1003.84 1004.15 1004.65 1005.49 1005.99
1003.25 1002.63 1002.07 1001.68 1001.57 1001.62 1001.69 1001.38 1000.81 1000.43 1000.31 1000.19 1000.31 1000.32 1000.27 1000.06 1000.17 1000.39 1000.73 1001.34 1002.11 1002.13 1002.07 1002.15 1002.39 1002.37 1002.73 1003.06 1003.21 1003.37 1003.65 1004.04 1004.71
1003.72 1003.53 1003.35 1003.23 1003.00 1002.48 1001.84 1001.31 1000.90 1000.61 1000.60 1000.56 1000.53 1000.47 1000.32 1000.18 1000.06 1000.15 1000.68 1001.50 1002.48 1002.77 1002.67 1002.50 1002.32 1002.07 1002.05 1002.43 1002.77 1002.84 1003.00 1003.31 1003.52
1004.55 1004.49 1004.33 1004.08 1003.78 1003.23 1002.69 1001.97 1001.08 1000.37 1000.27 1000.44 1000.62 1000.77 1000.60 1000.39 1000.16 1000.06 1000.44 1001.11 1001.67 1002.40 1002.97 1002.77 1002.66 1002.52 1001.85 1001.99 1002.21 1002.99 1003.15 1003.25 1003.52
Wind_Speed
25 25 20 21 25 24 23 24 24 22 22 21 19 19 18 15 13 10 9 9 5 6 6 7 8 9 9 9 8 6 6 4 5
25 29 26 25 25 24 23 23 25 25 23 22 20 20 17 16 14 15 12 8 7 7 6 6 8 10 11 9 9 8 7 5 6
29 28 28 24 24 25 24 21 23 23 23 24 20 20 17 15 15 13 10 9 9 8 7 7 7 8 11 10 9 9 8 6 6
26 28 27 27 24 24 25 22 21 22 21 22 20 18 17 16 15 15 13 10 11 11 7 8 8 9 10 10 10 9 9 8 8
29 28 30 28 26 25 23 23 22 22 21 21 20 19 18 17 15 14 13 14 12 10 11 9 11 7 8 10 11 10 12 12 10
28 28 28 27 25 24 24 24 21 21 21 21 20 18 18 17 16 15 15 15 14 11 12 12 10 9 10 10 11 12 13 12 12
20 29 29 28 24 25 23 23 21 20 21 20 19 19 18 19 19 17 16 16 16 15 14 12 11 11 12 12 12 13 13 13 13
18 23 28 27 26 24 23 22 21 19 19 20 20 20 20 20 18 17 17 16 16 15 15 14 14 12 10 13 13 11 14 14 15
12 22 28 28 27 27 25 24 21 20 20 21 20 21 21 18 17 17 17 16 16 15 15 15 14 14 15 13 12 16 19 18 15
13 9 13 24 26 26 22 22 21 21 20 16 18 19 18 17 17 17 17 17 16 16 16 15 15 14 15 16 16 17 20 22 15
17 17 16 11 7 6 13 14 15 15 14 18 18 17 17 16 16 17 16 16 16 16 14 15 15 16 16 15 15 15 18 20 19
13 11 9 8 7 7 10 8 7 12 12 14 15 16 17 17 18 17 17 17 17 16 14 14 15 14 16 17 16 16 17 14 14
14 14 11 10 9 11 10 6 6 9 13 14 17 17 17 17 16 18 18 18 18 16 15 15 12 14 15 17 16 15 18 17 12
12 11 14 11 12 13 12 8 8 9 6 6 5 4 6 11 15 17 17 16 14 14 14 13 13 14 13 15 14 15 18 20 15
14 13 14 13 12 11 11 10 11 8 7 1 2 6 9 9 8 10 10 14 12 13 13 13 13 12 11 10 11 13 16 20 23
11 13 12 11 9 8 9 10 8 13 11 6 4 2 6 7 8 10 10 12 12 10 12 11 11 10 11 10 8 8 15 19 20
9 10 11 9 12 12 9 8 8 6 8 9 6 4 2 4 6 6 6 8 9 10 10 10 10 10 10 8 7 7 5 7 9
7 8 11 11 11 12 10 7 6 6 6 6 7 6 6 4 4 6 5 3 1 7 7 7 10 10 8 8 8 6 11 11 8
6 8 8 9 8 9 12 11 8 5 5 5 5 6 5 6 5 3 4 5 3 8 5 5 6 8 8 4 2 4 13 12 15
4 7 7 7 8 8 8 10 11 9 6 4 3 4 5 5 6 4 6 5 7 5 2 8 9 8 5 10 11 7 8 7 8
Wind_Direction
198 203 201 210 197 191 185 184 184 185 187 189 186 188 191 193 187 195 204 200 190 200 192 202 198 197 197 197 194 190 181 185 193
200 203 202 209 197 194 190 186 187 187 188 194 193 192 189 190 191 201 205 198 197 199 190 197 200 196 199 199 192 191 172 189 208
197 202 204 207 197 193 193 191 190 188 190 193 193 195 198 200 198 193 195 193 195 198 190 199 201 200 201 203 195 190 180 197 207
201 199 201 202 199 193 194 192 189 191 190 193 193 194 196 200 202 203 199 198 205 209 198 194 203 205 199 201 197 191 189 199 201
198 196 197 195 196 191 189 193 190 191 191 192 194 194 194 199 200 199 201 209 203 198 205 210 209 190 196 200 197 191 197 204 204
192 191 192 190 190 189 190 193 193 191 190 194 193 190 193 195 198 197 200 206 208 197 205 209 208 193 191 191 194 196 205 204 207
169 184 184 186 186 189 189 191 193 192 195 191 189 188 191 196 199 198 199 202 205 208 206 205 204 204 203 194 198 204 207 207 212
157 175 179 181 183 186 188 189 193 195 194 189 186 189 194 200 199 200 200 200 203 207 207 211 212 206 200 205 204 204 208 210 216
154 171 177 179 183 184 186 188 192 192 192 192 187 191 198 199 197 198 202 203 202 203 207 210 209 211 210 203 211 208 203 208 216
97 117 167 183 183 185 187 189 189 192 193 182 189 195 198 197 198 199 201 202 203 206 205 206 210 211 214 217 216 205 203 206 217
78 84 85 76 86 128 193 193 192 194 178 185 191 192 195 197 196 200 201 201 205 210 209 208 208 214 216 219 226 209 203 206 220
43 50 57 77 73 74 80 85 156 164 178 192 192 196 197 195 193 197 198 202 204 208 209 210 213 213 216 221 226 210 202 192 222
37 36 35 44 60 65 66 50 81 148 181 190 201 201 200 198 192 198 201 203 204 207 208 212 211 217 218 219 223 210 198 195 222
38 40 36 23 42 58 44 36 68 78 114 195 208 194 189 199 202 202 204 206 204 206 208 212 214 218 220 222 214 219 195 195 216
24 23 35 32 32 35 33 35 45 44 35 322 159 181 177 180 188 202 203 203 203 206 205 209 214 217 224 224 221 209 199 199 211
19 17 20 30 37 24 23 22 35 31 358 311 299 186 200 202 194 192 188 192 195 198 203 209 213 216 224 228 218 216 200 199 210
19 10 12 5 22 27 16 7 18 23 22 12 330 292 248 217 199 198 189 191 191 196 201 208 215 218 223 223 221 212 175 197 210
6 4 3 1 10 6 353 346 2 10 12 25 17 355 322 303 220 209 188 138 209 209 204 214 208 217 213 214 225 207 196 188 190
14 3 357 354 339 348 340 337 337 5 18 21 10 346 334 316 295 209 174 170 144 48 31 5 301 261 223 201 283 220 201 205 203
17 4 344 339 313 311 317 317 323 325 337 351 329 287 275 278 264 214 181 181 181 173 63 74 51 14 240 190 159 158 165 159 150